TERRASAR-X

Last updated on Thu Nov 21 2024 00:02:26 GMT+0000 (Coordinated Universal Time)

1 31698U 07026A 24325.47911950 .00003071 00000+0 14932-3 0 9996 2 31698 97.4447 330.4076 0001836 83.6761 276.4683 15.19161827966127
UTC large
Height (km)
Speed (km/s)
/
Latitude / Longitude
Inclination (degrees)
Orbital Period (minutes)
Azimuth
Elevation
Range (km)
Doppler Factor

Next 0 passes for location: London (51.5072 / 0.1276)

Sorry there are no passes over London.